Prestwick, United Kingdom

1:59 AM GMT on December 12, 2017 (GMT +0000)
Prestwick

Weather History for EGPK - March, 2013

Change the Weather History Date:

Saturday, March 23, 2013

  Actual Average Record
Temperature  
Mean Temperature 34 °F -  
Max Temperature 35 °F 51 °F 57 °F (2005)
Min Temperature 33 °F 38 °F 28 °F (2006)
Degree Days  
Heating Degree Days 31    
Moisture  
Dew Point 28 °F    
Average Humidity 75    
Maximum Humidity 87    
Minimum Humidity 70    
Precipitation  
Precipitation 0.00 in - - ()
Sea Level Pressure  
Sea Level Pressure 30.05 in    
Wind  
Wind Speed 12 mph ()    
Max Wind Speed 23 mph    
Max Gust Speed 36 mph    
Visibility 5.6 miles    
Events Rain , Snow    
Averages and records for this station are not official NWS values.
T = Trace of Precipitation, MM = Missing Value Source: Averaged Metar Reports

Daily Weather History Graph

Daily Weather History Graph

Search for Another Location

Airport or City:

Trip Planner

Search our weather history database for the weather conditions in past years. The results will help you decide how hot, cold, wet, or windy it might be!

Date:

Astronomy

Mar. 23, 2013 Rise Set
Actual Time 6:12 AM GMT 6:38 PM GMT
Civil Twilight 5:35 AM GMT 7:15 PM GMT
Nautical Twilight 4:51 AM GMT 7:59 PM GMT
Astronomical Twilight 4:05 AM GMT 8:46 PM GMT
Moon 2:16 PM GMT (3/23) 4:17 AM GMT (3/23)
Length of Visible Light 13h 39m
Length of Day
12h 25m
Waxing Gibbous, 83% of the Moon is Illuminated
Mar 23
Waxing Gibbous
Mar 27
Full
Apr 3
Last Quarter
Apr 10
New
Apr 18
First Quarter

Hourly Weather History & Observations

Time (GMT) Temp. Windchill Dew Point Humidity Pressure Visibility Wind Dir Wind Speed Gust Speed Precip Events Conditions
12:50 AM 35.6 °F 27.1 °F 28.4 °F 75% 29.95 in 6.2 mi East 12.7 mph 26.5 mph N/A Snow Light Snow
1:50 AM 35.6 °F 28.0 °F 30.2 °F 81% 29.95 in 6.2 mi East 10.4 mph 25.3 mph N/A Snow Light Snow
2:50 AM 35.6 °F 28.0 °F 30.2 °F 81% 29.95 in 6.2 mi East 10.4 mph 21.9 mph N/A Snow Light Snow
3:50 AM 35.6 °F 27.5 °F 30.2 °F 81% 29.95 in 6.2 mi East 11.5 mph 25.3 mph N/A Snow Light Snow
4:50 AM 35.6 °F 27.1 °F 30.2 °F 81% 29.95 in 6.2 mi East 12.7 mph 27.6 mph N/A Snow Light Snow
5:50 AM 35.6 °F 27.1 °F 30.2 °F 81% 29.98 in 6.2 mi East 12.7 mph 24.2 mph N/A Rain , Snow Light Rain
6:20 AM 35.6 °F 27.5 °F 28.4 °F 75% 29.98 in 6.2 mi East 11.5 mph 26.5 mph N/A Rain , Snow Light Rain
6:50 AM 35.6 °F 27.5 °F 28.4 °F 75% 29.98 in 6.2 mi East 11.5 mph 24.2 mph N/A   Mostly Cloudy
7:20 AM 35.6 °F 27.5 °F 30.2 °F 81% 29.98 in 6.2 mi East 11.5 mph 27.6 mph N/A   Mostly Cloudy
7:50 AM 35.6 °F 27.1 °F 30.2 °F 81% 29.98 in 6.2 mi East 12.7 mph 31.1 mph N/A   Mostly Cloudy
8:20 AM 33.8 °F 23.9 °F 30.2 °F 87% 30.01 in 5.0 mi East 15.0 mph 32.2 mph N/A   Mostly Cloudy
8:50 AM 35.6 °F 25.9 °F 30.2 °F 81% 30.01 in 5.0 mi East 16.1 mph 28.8 mph N/A Snow Light Snow
9:20 AM 35.6 °F 26.6 °F 28.4 °F 75% 30.01 in 6.2 mi East 13.8 mph 29.9 mph N/A   Mostly Cloudy
9:50 AM 35.6 °F 25.5 °F 28.4 °F 75% 30.01 in 6.2 mi East 17.3 mph 29.9 mph N/A   Mostly Cloudy
10:20 AM 35.6 °F 24.5 °F 28.4 °F 75% 30.04 in 6.2 mi East 20.7 mph 35.7 mph N/A   Mostly Cloudy
10:50 AM 35.6 °F 27.1 °F 30.2 °F 81% 30.04 in 5.0 mi East 12.7 mph 25.3 mph N/A Rain , Snow Light Rain
11:20 AM 35.6 °F 26.6 °F 28.4 °F 75% 30.04 in 3.7 mi East 13.8 mph 25.3 mph N/A Rain , Snow Light Rain
11:50 AM 35.6 °F 25.9 °F 28.4 °F 75% 30.06 in 5.0 mi East 16.1 mph 33.4 mph N/A   Scattered Clouds
12:20 PM 35.6 °F 24.0 °F 26.6 °F 70% 30.06 in 5.0 mi East 23.0 mph 35.7 mph N/A   Scattered Clouds
12:50 PM 35.6 °F 26.6 °F 26.6 °F 70% 30.06 in 5.0 mi East 13.8 mph - N/A   Scattered Clouds
1:20 PM 35.6 °F 27.5 °F 28.4 °F 75% 30.06 in 5.0 mi East 11.5 mph 24.2 mph N/A   Scattered Clouds
1:50 PM 35.6 °F 27.5 °F 28.4 °F 75% 30.06 in 5.0 mi East 11.5 mph 25.3 mph N/A   Scattered Clouds
2:20 PM 35.6 °F 28.0 °F 28.4 °F 75% 30.06 in 5.0 mi East 10.4 mph 24.2 mph N/A   Scattered Clouds
2:50 PM 35.6 °F 27.5 °F 28.4 °F 75% 30.06 in 5.0 mi East 11.5 mph 23.0 mph N/A   Mostly Cloudy
3:20 PM 35.6 °F 27.5 °F 26.6 °F 70% 30.06 in 5.0 mi East 11.5 mph - N/A   Mostly Cloudy
3:50 PM 35.6 °F 27.5 °F 28.4 °F 75% 30.06 in 5.0 mi East 11.5 mph 24.2 mph N/A Snow Light Snow Showers
4:20 PM 35.6 °F 26.6 °F 26.6 °F 70% 30.06 in 5.0 mi East 13.8 mph 29.9 mph N/A   Scattered Clouds
4:50 PM 35.6 °F 26.2 °F 26.6 °F 70% 30.06 in 5.6 mi East 15.0 mph 28.8 mph N/A   Scattered Clouds
5:20 PM 33.8 °F 25.3 °F 26.6 °F 75% 30.09 in 5.6 mi East 11.5 mph 23.0 mph N/A   Scattered Clouds
5:50 PM 33.8 °F 24.8 °F 26.6 °F 75% 30.09 in 5.6 mi East 12.7 mph 26.5 mph N/A   Scattered Clouds
6:20 PM 33.8 °F 24.8 °F 26.6 °F 75% 30.09 in 5.6 mi East 12.7 mph 24.2 mph N/A   Mostly Cloudy
6:50 PM 33.8 °F 24.3 °F 24.8 °F 70% 30.09 in 5.6 mi East 13.8 mph 29.9 mph N/A   Mostly Cloudy
7:20 PM 33.8 °F 24.3 °F 24.8 °F 70% 30.12 in 5.6 mi East 13.8 mph 26.5 mph N/A   Mostly Cloudy
7:50 PM 33.8 °F 25.3 °F 24.8 °F 70% 30.12 in 5.6 mi East 11.5 mph 32.2 mph N/A   Mostly Cloudy
8:20 PM 33.8 °F 24.3 °F 24.8 °F 70% 30.12 in 5.6 mi East 13.8 mph 25.3 mph N/A   Mostly Cloudy
8:50 PM 33.8 °F 24.3 °F 24.8 °F 70% 30.12 in 5.6 mi East 13.8 mph 32.2 mph N/A   Mostly Cloudy
9:20 PM 33.8 °F 25.3 °F 24.8 °F 70% 30.12 in 6.2 mi East 11.5 mph 25.3 mph N/A   Mostly Cloudy
9:50 PM 33.8 °F 24.8 °F 24.8 °F 70% 30.12 in 6.2 mi East 12.7 mph 32.2 mph N/A   Scattered Clouds
10:20 PM 33.8 °F 25.3 °F 24.8 °F 70% 30.12 in 6.2 mi East 11.5 mph 25.3 mph N/A   Scattered Clouds
10:50 PM 33.8 °F 24.3 °F 24.8 °F 70% 30.12 in 6.2 mi East 13.8 mph 29.9 mph N/A   Mostly Cloudy
11:20 PM 33.8 °F 24.3 °F 24.8 °F 70% 30.12 in 6.2 mi East 13.8 mph 28.8 mph N/A   Mostly Cloudy
11:50 PM 33.8 °F 24.3 °F 24.8 °F 70% 30.12 in 6.2 mi East 13.8 mph 28.8 mph N/A   Mostly Cloudy